Station WDSV2 - 8638614 - Willoughby Deguassing Station, VA Image indicating link to RSS feed of recent meteorological observations for station WDSV2


Conditions at WDSV2 as of
(6:30 am EDT)
1030 GMT on 09/01/2026:
     

Click on the graph icon in the table below to see a time series plot of the last five days of that observation.

5-day plot - Wind Direction Wind Direction (WDIR):WNW ( 300 deg true )
5-day plot - Wind Speed Wind Speed (WSPD): 8.0 kts
5-day plot - Wind Gust Wind Gust (GST): 11.1 kts
5-day plot - Atmospheric Pressure Atmospheric Pressure (PRES):30.03 in
5-day plot - Air Temperature Air Temperature (ATMP): 78.8 °F
5-day plot - Wind Speed at 10 Meters Wind Speed at 10 meters (WSPD10M): 9.7 kts
5-day plot - Wind Speed at 20 Meters Wind Speed at 20 meters (WSPD20M): 9.7 kts
5-day plot -  Wind Speed, Wind Gust and Atmospheric Pressure Combined plot of Wind Speed, Gust, and Air Pressure
NOS Water Level Observation Network Water Level
Previous observations
TIME
(EDT)
5-day plot - Wind Direction
WDIR
 
5-day plot - Wind Speed
WSPD
kts
5-day plot - Wind Gust
GST
kts
5-day plot - Wave Height
WVHT
ft
5-day plot - Dominant Wave Period
DPD
sec
5-day plot - Average Wave Period
APD
sec
5-day plot - Mean Wave Direction
MWD
 
5-day plot - Atmospheric Pressure
PRES
in
5-day plot - Pressure Tendency
PTDY
in
5-day plot - Air Temperature
ATMP
°F
5-day plot - Water Temperature
WTMP
°F
5-day plot - Dew Point
DEWP
°F
5-day plot - Salinity
SAL
psu
5-day plot - Visibility
VIS
nmi
5-day plot - Tide (above MLLW)
TIDE
ft
2026-09-01 06:24 amWNW 8.9 12.0----30.03- 78.8-----
2026-09-01 06:18 am W 11.1 12.0----30.03-------
2026-09-01 06:12 am W 12.0 14.0----30.03-------
2026-09-01 06:06 am W 11.1 13.0----30.03-------
2026-09-01 06:00 am W 12.0 15.0----30.03- 78.8-----
2026-09-01 05:54 am W 13.0 14.0----30.03- 78.8-----
2026-09-01 05:48 amWNW 12.0 15.0----30.03- 79.2-----
2026-09-01 05:42 am W 11.1 13.0----30.03- 79.0-----
2026-09-01 05:36 am W 8.9 13.0----30.03- 78.6-----
2026-09-01 05:30 amWNW 8.9 13.0----30.03- 78.6-----
2026-09-01 05:24 am W 9.9 13.0----30.03- 78.6-----
2026-09-01 05:18 am W 9.9 13.0----30.03-------
2026-09-01 05:12 am W 9.9 11.1----30.03-------
2026-09-01 05:06 am W 9.9 12.0----30.03-------
2026-09-01 05:00 am W 8.9 11.1----30.03-0.04 78.1-----
2026-09-01 04:54 am W 8.9 12.0----30.03- 78.1-----
2026-09-01 04:48 am W 8.0 11.1----30.03-------
2026-09-01 04:42 am W 7.0 12.0----30.03-------
2026-09-01 04:36 amWSW 8.9 12.0----30.03-------
2026-09-01 04:30 amWSW 8.9 13.0----30.03- 78.3-----
2026-09-01 04:24 am W 8.0 12.0----30.04- 78.4-----
2026-09-01 04:18 am W 8.0 11.1----30.04-------
2026-09-01 04:12 am W 8.0 11.1----30.04-------
2026-09-01 04:06 am W 8.0 11.1----30.04-------
2026-09-01 04:00 amWSW 8.9 12.0----30.04-0.04 78.3-----
2026-09-01 03:54 amWSW 11.1 12.0----30.04- 78.1-----
2026-09-01 03:48 amWSW 8.0 12.0----30.05- 78.4-----
2026-09-01 03:42 amWSW 9.9 13.0----30.04- 78.3-----
2026-09-01 03:36 am SW 11.1 13.0----30.05- 78.4-----
2026-09-01 03:30 am SW 11.1 12.0----30.05- 78.6-----
2026-09-01 03:24 amWSW 8.9 13.0----30.05- 78.6-----
2026-09-01 03:18 amWSW 9.9 13.0----30.05- 78.8-----
2026-09-01 03:12 amWSW 9.9 12.0----30.05- 78.8-----
2026-09-01 03:06 amWSW 9.9 11.1----30.05- 78.8-----
2026-09-01 03:00 amWSW 8.9 12.0------ 78.8-----
2026-09-01 02:54 am W 5.1 11.1------ 79.0-----
2026-09-01 02:48 amWSW 8.0 11.1----30.06- 79.0-----
2026-09-01 02:42 amWSW 8.0 9.9----30.06- 79.0-----
2026-09-01 02:36 am W 5.1 8.9----30.06- 79.0-----
2026-09-01 02:30 am W 6.0 8.0----30.07-------
2026-09-01 02:24 am W 6.0 8.0----30.07-------
2026-09-01 02:18 am W 6.0 7.0----30.07-------
2026-09-01 02:12 am W 6.0 8.0----30.07-------
2026-09-01 02:06 amWSW 7.0 9.9----30.07-------
2026-09-01 02:00 amWSW 6.0 9.9----30.07-0.01 79.9-----
2026-09-01 01:54 am SW 8.9 12.0----30.07- 80.1-----
2026-09-01 01:48 am SW 8.9 9.9----30.07- 80.1-----
2026-09-01 01:42 am SW 8.9 11.1----30.07- 80.1-----
2026-09-01 01:36 amWSW 7.0 8.9----30.08- 80.1-----
2026-09-01 01:30 am W 4.1 8.9----30.08- 79.7-----
2026-09-01 01:24 amSSW 6.0 7.0----30.08- 79.7-----
2026-09-01 01:18 am SW 4.1 8.0----30.08-------
2026-09-01 01:12 am N 1.9 5.1----30.08-------
2026-09-01 01:06 am N 2.9 6.0----30.08-------
2026-09-01 01:00 amSSE 4.1 7.0----30.08+0.00 79.3-----
2026-09-01 12:54 amSSW 5.1 7.0----30.08- 79.2-----
2026-09-01 12:48 amSSW 4.1 7.0----30.08- 79.3-----
2026-09-01 12:42 am S 6.0 7.0----30.08- 79.3-----
2026-09-01 12:36 am S 6.0 7.0----30.08- 79.5-----
2026-09-01 12:30 am S 5.1 7.0----30.08- 79.7-----
2026-09-01 12:24 am E 1.9 5.1----30.08- 80.1-----
2026-09-01 12:18 amESE 2.9 7.0----30.08-------
2026-09-01 12:12 am- 0.0 7.0----30.08-------
2026-09-01 12:06 am SE 2.9 6.0----30.08-------
2026-09-01 12:00 am E 1.0 2.9----30.08+0.00 80.6-----
2026-08-31 11:54 pmESE 1.9 4.1----30.08- 80.6-----
2026-08-31 11:48 pmENE 1.9 4.1----30.08-------
2026-08-31 11:42 pmNNE 4.1 5.1----30.08-------
2026-08-31 11:36 pm NE 2.9 5.1----30.08-------
2026-08-31 11:30 pm NE 1.9 2.9----30.08- 80.6-----
2026-08-31 11:24 pm NE 1.9 1.9----30.08- 80.4-----
2026-08-31 11:18 pm NE 1.9 1.9------------
2026-08-31 11:12 pmNNE 1.0 1.0------------
2026-08-31 11:06 pm- 0.0 1.0------------
2026-08-31 11:00 pm- 0.0 0.0----30.08+0.02 80.6-----
2026-08-31 10:54 pm- 0.0 0.0----30.08- 80.8-----
2026-08-31 10:48 pm- 0.0 0.0----30.09- 80.6-----
2026-08-31 10:42 pm- 0.0 0.0----30.09- 80.6-----
2026-08-31 10:36 pm- 0.0 0.0----30.09- 80.8-----
2026-08-31 10:30 pm- 0.0 1.0----30.09- 80.8-----
2026-08-31 10:24 pm- 0.0 1.9----30.09- 80.8-----
2026-08-31 10:18 pm N 1.9 2.9----30.09-------
2026-08-31 10:12 pm N 2.9 4.1----30.08-------
2026-08-31 10:06 pm N 1.9 1.9----30.08-------
2026-08-31 10:00 pm- 0.0 4.1----30.08+0.03 80.6-----
2026-08-31 09:54 pm N 4.1 7.0----30.09- 80.6-----
2026-08-31 09:48 pmNNW 6.0 7.0----30.09- 80.4-----
2026-08-31 09:42 pmNNW 2.9 4.1----30.09- 80.4-----
2026-08-31 09:36 pm- 0.0 1.0----30.08- 80.1-----
2026-08-31 09:30 pm- 0.0 2.9----30.08- 79.9-----
2026-08-31 09:24 pmNNE 1.9 2.9----30.08- 79.9-----
2026-08-31 09:18 pmNNE 1.9 2.9----30.07-------
2026-08-31 09:12 pmENE 1.9 2.9----30.07-------
2026-08-31 09:06 pmNNE 1.9 2.9----30.07-------
2026-08-31 09:00 pmNNE 1.9 2.9----30.07+0.01 79.5-----
2026-08-31 08:54 pmNNE 1.9 4.1----30.07- 79.7-----
2026-08-31 08:48 pmNNE 1.9 6.0----30.07-------
2026-08-31 08:42 pmNNE 2.9 4.1----30.07-------
2026-08-31 08:36 pmENE 1.9 5.1----30.06-------
2026-08-31 08:30 pm S 5.1 7.0----30.07- 80.2-----
2026-08-31 08:24 pm S 4.1 5.1----30.07- 79.7-----
2026-08-31 08:18 pmSSE 2.9 5.1----30.07-------
2026-08-31 08:12 pm S 5.1 6.0----30.06-------
2026-08-31 08:06 pm S 5.1 6.0----30.06-------
2026-08-31 08:00 pmSSW 4.1 5.1----30.06-0.02 79.5-----
2026-08-31 07:54 pm S 5.1 7.0----30.06- 79.5-----
2026-08-31 07:48 pmESE 1.9 7.0----30.06-------
2026-08-31 07:42 pmSSE 5.1 8.0----30.06-------
2026-08-31 07:36 pm S 6.0 8.0----30.06-------
2026-08-31 06:48 pmESE 2.9 7.0----30.06- 81.1-----
2026-08-31 06:42 pm SE 5.1 8.0----30.06- 81.1-----
2026-08-31 06:36 pm SE 6.0 6.0----30.06- 81.1-----
2026-08-31 06:30 pm E 4.1 6.0----30.06- 81.7-----
2026-08-31 06:24 pm SE 5.1 6.0----30.06- 81.0-----
2026-08-31 06:18 pm SE 4.1 5.1----30.06- 80.2-----
2026-08-31 06:12 pm E 4.1 5.1----30.06- 79.9-----
2026-08-31 06:06 pmENE 1.0 1.9----30.06- 79.7-----
2026-08-31 06:00 pmENE 1.0 2.9----30.06+0.00 79.9-----
2026-08-31 05:54 pm NE 1.9 2.9----30.06- 79.0-----
2026-08-31 05:48 pmESE 1.9 7.0----30.07- 78.8-----
2026-08-31 05:42 pm SE 5.1 8.0----30.06- 79.0-----
2026-08-31 05:36 pm S 7.0 12.0----30.06- 78.1-----
2026-08-31 05:30 pm SE 5.1 8.9----30.06- 79.0-----
2026-08-31 05:24 pm S 11.1 15.0----30.06- 78.4-----
2026-08-31 05:18 pm S 1.0 6.0----30.07-------
2026-08-31 05:12 pm SW 7.0 8.9----30.07-------
2026-08-31 05:06 pm SW 5.1 8.0----30.07-------
2026-08-31 05:00 pm W 5.1 15.0----30.08+0.00 78.4-----
2026-08-31 04:54 pmWNW 14.0 17.1----30.08- 78.8-----
2026-08-31 04:48 pmWNW 14.0 18.1----30.08- 80.4-----
2026-08-31 04:42 pm N 12.0 15.9----30.07- 79.5-----
2026-08-31 04:36 pmNNE 14.0 15.9----30.07- 79.7-----
2026-08-31 04:30 pmNNE 17.1 26.0----30.06- 83.8-----
2026-08-31 04:24 pmNNE 17.1 20.0----30.07- 80.6-----
2026-08-31 04:18 pmENE 11.1 14.0----30.08-------
2026-08-31 04:12 pmESE 12.0 15.0----30.06-------
2026-08-31 04:06 pmESE 13.0 15.9----30.06-------
2026-08-31 04:00 pmESE 13.0 15.9----30.06-0.03 83.1-----
2026-08-31 03:54 pmESE 14.0 15.9----30.05- 83.3-----
2026-08-31 03:48 pmESE 13.0 14.0----30.05- 83.7-----
2026-08-31 03:42 pmESE 12.0 14.0----30.05- 83.3-----
2026-08-31 03:36 pmESE 13.0 15.0----30.05- 83.5-----
2026-08-31 03:30 pmESE 11.1 14.0----30.06- 84.0-----
2026-08-31 03:24 pmESE 11.1 13.0----30.06- 83.8-----
2026-08-31 03:18 pmESE 12.0 13.0----30.06-------
2026-08-31 03:12 pmESE 11.1 13.0----30.06-------
2026-08-31 03:06 pmESE 9.9 12.0----30.06-------
2026-08-31 03:00 pmESE 8.9 12.0----30.07-0.04 83.8-----
2026-08-31 02:54 pm E 6.0 8.9----30.07- 84.4-----
2026-08-31 02:48 pm E 4.1 5.1----30.07- 86.9-----
2026-08-31 02:42 pm- 0.0 1.9----30.07- 87.8-----
2026-08-31 02:36 pmWNW 1.9 1.9----30.07- 88.3-----
2026-08-31 02:30 pmWNW 1.0 2.9----30.07- 88.0-----
2026-08-31 02:24 pm W 1.9 2.9----30.07- 87.4-----
2026-08-31 02:18 pm W 1.9 2.9----30.07-------
2026-08-31 02:12 pm W 1.9 1.9----30.08-------
2026-08-31 02:06 pm W 1.0 1.9----30.08-------
2026-08-31 02:00 pmWSW 1.9 1.9----30.08-0.03 86.9-----
2026-08-31 01:54 pm SW 1.9 2.9----30.08- 86.4-----
2026-08-31 01:48 pm SW 2.9 2.9----30.09-------
2026-08-31 01:42 pmWSW 2.9 2.9----30.09-------
2026-08-31 01:36 pmWSW 2.9 5.1----30.09-------
2026-08-31 01:30 pmWSW 5.1 5.1----30.09- 86.0-----
2026-08-31 01:24 pmWSW 4.1 5.1----30.09- 85.6-----
2026-08-31 01:18 pmWSW 5.1 6.0----30.09-------
2026-08-31 01:12 pm SW 6.0 6.0----30.09-------
2026-08-31 01:06 pm SW 6.0 7.0----30.09-------
2026-08-31 01:00 pm SW 7.0 7.0----30.09-0.01 85.1-----
2026-08-31 12:54 pm SW 7.0 7.0----30.09- 84.9-----
2026-08-31 12:48 pm SW 7.0 7.0----30.09- 84.6-----
2026-08-31 12:42 pm SW 7.0 8.0----30.09- 84.2-----
2026-08-31 12:36 pm SW 7.0 7.0----30.09- 83.8-----
2026-08-31 12:30 pm SW 6.0 7.0----30.10- 83.7-----
2026-08-31 12:24 pmWSW 6.0 7.0----30.10- 83.5-----
2026-08-31 12:18 pm SW 6.0 6.0----30.10-------
2026-08-31 12:12 pm SW 5.1 5.1----30.11-------
2026-08-31 12:06 pm SW 5.1 6.0----30.11-------
2026-08-31 12:00 pm SW 5.1 5.1----30.11+0.01 82.8-----
2026-08-31 11:54 am SW 5.1 5.1----30.11- 82.6-----
2026-08-31 11:48 am SW 5.1 6.0----30.11- 82.0-----
2026-08-31 11:42 am SW 5.1 6.0----30.11- 81.5-----
2026-08-31 11:36 am SW 5.1 5.1----30.11- 81.5-----
2026-08-31 11:30 amWSW 5.1 5.1----30.11- 81.5-----
2026-08-31 11:24 amWSW 5.1 5.1----30.11- 81.1-----
2026-08-31 11:18 amWSW 5.1 5.1----30.11-------
2026-08-31 11:12 amWSW 5.1 5.1----30.11-------
2026-08-31 11:06 amWSW 5.1 6.0----30.11-------
2026-08-31 11:00 amWSW 6.0 6.0----30.11+0.01 80.1-----
2026-08-31 10:54 amWSW 5.1 7.0----30.11- 80.1-----
2026-08-31 10:48 am SW 7.0 7.0----30.11- 79.9-----
2026-08-31 10:42 am SW 6.0 7.0----30.11- 79.9-----
2026-08-31 10:36 amWSW 6.0 7.0----30.11- 80.1-----
2026-08-31 10:30 amWSW 6.0 7.0----30.11- 79.9-----
2026-08-31 10:24 amWSW 6.0 7.0----30.11- 79.9-----
2026-08-31 10:18 am SW 6.0 7.0----30.11-------
2026-08-31 10:12 amWSW 6.0 7.0----30.11-------
2026-08-31 10:06 amWSW 6.0 7.0----30.11-------
2026-08-31 10:00 amWSW 7.0 7.0----30.11+0.00 79.5-----
2026-08-31 09:54 amWSW 7.0 8.0----30.11- 79.3-----
2026-08-31 09:48 amWSW 7.0 7.0----30.11-------
2026-08-31 09:42 amWSW 6.0 7.0----30.11-------
2026-08-31 09:36 amWSW 6.0 7.0----30.10-------
2026-08-31 09:30 am W 6.0 7.0----30.10- 78.4-----
2026-08-31 09:24 am W 6.0 7.0----30.10- 78.3-----
2026-08-31 09:18 am W 6.0 8.0----30.10-------
2026-08-31 09:12 am W 6.0 8.0----30.10-------
2026-08-31 09:06 am W 7.0 8.0----30.10-------
2026-08-31 09:00 am W 7.0 8.9----30.10+0.00 77.9-----
2026-08-31 08:54 am W 8.0 8.9----30.09- 77.7-----
2026-08-31 08:48 am W 8.0 8.9----30.09-------
2026-08-31 08:42 amWSW 7.0 8.0----30.09-------
2026-08-31 08:36 amWSW 7.0 8.9----30.09-------
2026-08-31 08:30 amWSW 7.0 8.0----30.09- 76.8-----
2026-08-31 08:24 amWSW 7.0 8.0----30.09- 76.5-----
2026-08-31 08:18 amWSW 6.0 8.0----30.10-------
2026-08-31 08:12 amWSW 6.0 8.0----30.10-------
2026-08-31 08:06 amWSW 6.0 7.0----30.10-------
2026-08-31 08:00 amWSW 7.0 8.0----30.10+0.02 76.6-----
2026-08-31 07:54 amWSW 6.0 7.0----30.10- 76.6-----
2026-08-31 07:48 amWSW 5.1 6.0----30.10-------
2026-08-31 07:42 amWSW 5.1 7.0----30.10-------
2026-08-31 07:36 am SW 6.0 7.0----30.10-------
2026-08-31 07:30 am SW 6.0 6.0----30.10- 76.3-----
2026-08-31 07:24 amWSW 5.1 6.0----30.10- 76.3-----
2026-08-31 07:18 am SW 5.1 6.0----30.10-------
2026-08-31 07:12 am SW 5.1 6.0----30.10-------
2026-08-31 07:06 amWSW 5.1 6.0----30.10-------
2026-08-31 07:00 amWSW 6.0 8.0----30.10+0.01 76.1-----
2026-08-31 06:54 am NW 1.9 5.1----30.10- 76.1-----